User: anonymous   Login
Location: Unspecified
(0.0000°N, 0.0000°E)
Time: 19:29:16
(UTC+00:00)
Language:

STARLINK-6032 - Orbit

View from above orbital plane
View from above orbital plane
View from above satellite
View from above satellite

Ground track
Ground track

The orbit is defined by the following mean orbital elements,

1 57371U          26145.53936109 +.00000000 +00000-0 +61259-4 0 00007
2 57371  43.0025 167.5668 0001375 270.9177  89.1517 15.26738548    07
Epoch (UTC): 25 May 2026 12:56:40
Eccentricity: 0.0001375
inclination: 43.0025°
perigee height: 485 km
apogee height: 487 km
right ascension of ascending node: 167.5668°
argument of perigee: 270.9177°
revolutions per day: 15.26738548
mean anomaly at epoch: 89.1517°

The dashed part of the orbit path shows where the satellite is in the earth's shadow,  

DLR